Flag for U.S.A. Weather past 2 weeks in Louisville, Kentucky, U.S.A.

Now
47 °F

Drizzle. Overcast.


Feels Like: 42 °F
Forecast: 46 / 63 °F
Wind: 9 mph from Northeast

Location: Standiford Field

Current Time: Apr 26, 2015 at 4:23:48 AM

Latest Report: Apr 26, 2015 at 3:56 AM


Visibility: 5 mi

Pressure: 29.71 "Hg

Humidity: 86%

Dew point: 43 °F

Location of LouisvilleLocation

Historic Weather in Louisville — Graph

°F

Louisville temperature yesterday

Maximum temperature yesterday: 60 °F (at 3:56 PM)
Minimum temperature yesterday: 47 °F (at 11:56 PM)
Average temperature yesterday: 54 °F

Past Weeks' High & Low Weather Summary

 TemperatureHumidityPressure
High81 °F (Apr 18, 3:56 PM)93% (Apr 19, 8:56 AM)30.29 "Hg (Apr 19, 8:56 AM)
Low38 °F (Apr 24, 6:56 AM)18% (Apr 23, 2:56 PM)29.44 "Hg (Apr 19, 7:56 PM)
Average60 °F58%29.96 "Hg
* Reported Apr 11 2:56 AM — Apr 26 2:56 AM, Louisville, Weather by CustomWeather, © 2015

Note: Actual official high and low records may vary slightly from our data, if they occured in-between our weather recording intervals... More about our weather records

Advertising

Louisville weather history for previous 24 hours

 ConditionsComfort  
Time TempWeatherWind HumidityBarometerVisibility
2:56 AM
Sun, Apr 26
47 °FDrizzle. Mostly cloudy.13 mph90%29.69 "Hg8 mi
1:56 AM47 °FDrizzle. Mostly cloudy.10 mph90%29.68 "Hg10 mi
12:56 AM48 °FDrizzle. Mostly cloudy.12 mph89%29.66 "Hg10 mi
11:56 PM
Sat, Apr 25
47 °FMostly cloudy.13 mph93%29.63 "Hg10 mi
10:56 PM50 °FMostly cloudy.13 mph89%29.60 "Hg10 mi
9:56 PM51 °FLight rain. Low clouds.9 mph89%29.58 "Hg10 mi
8:56 PM51 °FLight rain. Mostly cloudy.10 mph89%29.57 "Hg10 mi
7:56 PM53 °FOvercast.10 mph86%29.55 "Hg10 mi
6:56 PM54 °FLight rain. Overcast.15 mph86%29.53 "Hg10 mi
5:56 PM56 °FLow clouds.13 mph87%29.54 "Hg10 mi
5:03 PM60 °FMostly cloudy.16 mph83%29.54 "Hg10 mi
3:56 PM60 °FMostly cloudy.7 mph83%29.54 "Hg9 mi
2:56 PM58 °FMostly cloudy.7 mph87%29.55 "Hg8 mi
1:56 PM56 °FLow clouds.5 mph93%29.57 "Hg9 mi
12:56 PM54 °FLight rain. Low clouds.6 mph93%29.61 "Hg9 mi
11:56 AM53 °FLight rain. Low clouds.6 mph93%29.66 "Hg9 mi
10:56 AM52 °FLight rain. Fog.6 mph93%29.69 "Hg2 mi
10:01 AM51 °FLight rain. Fog.6 mph92%29.71 "Hg3 mi
8:56 AM51 °FLight rain. Fog.8 mph86%29.71 "Hg5 mi
7:56 AM51 °FLight rain. Overcast.9 mph86%29.74 "Hg10 mi
6:56 AM53 °FMostly cloudy.9 mph74%29.76 "Hg10 mi
5:56 AM53 °FMostly cloudy.6 mph77%29.77 "Hg10 mi
4:56 AM54 °FMostly cloudy.6 mph67%29.78 "Hg10 mi
Weather by CustomWeather, © 2015

See weather overviewHow to use our weather pages